EW8804 Weather Reports


time (UTC)temp
F
wind
direction
speed
knots
gust
knots
rain 1hr
in
rain 24hr
in
rain mn
in
humidity
%
barometer
mb
20260502201726 64 257 0.0 1.7 0.00 0.00 0.00 71 1015.5
20260502201227 64 257 0.0 1.7 0.00 0.00 0.00 71 1015.4
20260502200725 64 257 0.0 2.6 0.00 0.00 0.00 71 1015.4
20260502200215 64 257 0.0 3.5 0.00 0.00 0.00 71 1015.4
20260502195724 64 252 1.7 3.5 0.00 0.00 0.00 71 1015.4
20260502195219 64 242 0.9 2.6 0.00 0.00 0.00 70 1015.3
20260502194741 64 260 0.0 0.9 0.00 0.00 0.00 69 1015.3
20260502194222 65 259 0.0 0.0 0.00 0.00 0.00 69 1015.3
20260502193726 65 256 0.0 0.0 0.00 0.00 0.00 68 1015.3
20260502193227 65 256 0.0 0.0 0.00 0.00 0.00 67 1015.3
20260502192730 65 256 0.0 0.0 0.00 0.00 0.00 67 1015.3
20260502192236 65 256 0.0 0.0 0.00 0.00 0.00 66 1015.3
20260502191727 66 256 0.0 0.0 0.00 0.00 0.00 66 1015.3
20260502191228 66 256 0.0 0.9 0.00 0.00 0.00 65 1015.3
20260502190726 66 256 0.0 0.9 0.00 0.00 0.00 63 1015.3
20260502190221 66 236 0.0 0.0 0.00 0.00 0.00 63 1015.3
20260502185743 67 226 0.0 0.0 0.00 0.00 0.00 62 1015.2
20260502185234 67 240 0.0 0.0 0.00 0.00 0.00 62 1015.2
20260502184734 67 232 0.0 0.0 0.00 0.00 0.00 61 1015.3
20260502184238 67 231 0.0 0.9 0.00 0.00 0.00 61 1015.3
20260502183720 67 228 0.0 0.9 0.00 0.00 0.00 60 1015.3
20260502183240 67 232 0.0 0.0 0.00 0.00 0.00 59 1015.3
20260502182724 68 231 0.0 0.0 0.00 0.00 0.00 59 1015.1
20260502182243 68 244 0.0 0.0 0.00 0.00 0.00 59 1015.2
20260502181737 68 267 0.0 0.0 0.00 0.00 0.00 58 1015.1
20260502181221 68 226 0.0 2.6 0.00 0.00 0.00 58 1015.1
20260502180717 68 226 0.0 3.5 0.00 0.00 0.00 57 1015.2
20260502180219 68 228 0.0 4.3 0.00 0.00 0.00 56 1015.2
20260502170228 71 181 0.0 5.2 0.00 0.00 0.00 53 1015.2
20260502164215 72 180 3.5 9.6 0.00 0.00 0.00 49 1015.1
20260502163739 72 240 0.9 8.7 0.00 0.00 0.00 48 1015.3
20260502163239 72 236 2.6 7.8 0.00 0.00 0.00 48 1015.3
20260502162732 73 210 2.6 7.8 0.00 0.00 0.00 46 1015.2
20260502162251 73 202 1.7 7.8 0.00 0.00 0.00 47 1015.3
20260502161718 73 229 0.9 8.7 0.00 0.00 0.00 49 1015.5
20260502161234 73 182 1.7 11.3 0.00 0.00 0.00 48 1015.5
20260502160728 73 223 3.5 11.3 0.00 0.00 0.00 47 1015.5
20260502160240 73 281 6.1 9.6 0.00 0.00 0.00 46 1015.5
20260502152232 73 239 3.5 8.7 0.00 0.00 0.00 52 1015.7
20260502151737 73 250 3.5 10.4 0.00 0.00 0.00 52 1015.9
20260502151218 73 183 6.1 10.4 0.00 0.00 0.00 54 1016.0
20260502150758 73 255 2.6 7.8 0.00 0.00 0.00 54 1016.0
20260502150231 72 178 3.5 8.7 0.00 0.00 0.00 56 1016.0
20260502130730 70 230 0.0 0.0 0.00 0.00 0.00 62 1016.7
20260502130226 70 246 0.0 3.5 0.00 0.00 0.00 63 1017.0
20260502123730 69 261 0.0 1.7 0.00 0.00 0.00 65 1017.1
20260502123218 69 264 0.0 4.3 0.00 0.00 0.00 65 1017.2
20260502122720 70 264 1.7 5.2 0.00 0.00 0.00 63 1017.4
20260502122242 70 231 0.0 5.2 0.00 0.00 0.00 63 1017.4
20260502121742 70 207 0.0 3.5 0.00 0.00 0.00 63 1017.4
20260502121231 70 211 1.7 3.5 0.00 0.00 0.00 64 1017.4
20260502120738 69 204 0.0 2.6 0.00 0.00 0.00 64 1017.5
20260502120242 69 211 0.0 2.6 0.00 0.00 0.00 63 1017.5
20260502115737 69 186 0.0 0.0 0.00 0.00 0.00 64 1017.5
20260502115236 69 186 0.0 1.7 0.00 0.00 0.00 64 1017.6
20260502114716 69 188 0.0 2.6 0.00 0.00 0.00 65 1017.6
20260502114236 69 184 0.0 2.6 0.00 0.00 0.00 63 1017.8
20260502113718 69 219 0.0 2.6 0.00 0.00 0.00 64 1017.8
20260502113217 68 221 0.0 0.0 0.00 0.00 0.00 65 1017.9
20260502112720 68 223 0.0 0.0 0.00 0.00 0.00 64 1017.8
20260502112223 67 244 0.0 0.0 0.00 0.00 0.00 66 1018.0
20260502111727 67 244 0.0 1.7 0.00 0.00 0.00 66 1018.3
20260502111228 67 244 0.0 2.6 0.00 0.00 0.00 65 1018.4
20260502110727 67 244 0.0 3.5 0.00 0.00 0.00 66 1018.4
20260502110229 67 244 1.7 3.5 0.00 0.00 0.00 67 1018.5
20260502105732 67 232 0.9 2.6 0.00 0.00 0.00 67 1018.6
20260502105249 66 232 0.0 0.0 0.00 0.00 0.00 67 1018.8
20260502104736 66 232 0.0 0.0 0.00 0.00 0.00 67 1018.6
20260502104239 66 232 0.0 2.6 0.00 0.00 0.00 67 1018.7
20260502103739 66 232 0.9 2.6 0.00 0.00 0.00 67 1018.6
20260502103252 66 225 0.0 0.0 0.00 0.00 0.00 67 1018.5
20260502102742 66 226 0.0 0.0 0.00 0.00 0.00 67 1018.5
20260502102239 66 240 0.0 0.0 0.00 0.00 0.00 67 1018.8
20260502101753 66 240 0.0 3.5 0.00 0.00 0.00 68 1018.8
20260502101237 66 240 1.7 3.5 0.00 0.00 0.00 67 1018.9
20260502100736 66 194 0.0 0.0 0.00 0.00 0.00 66 1018.9
20260502100222 66 194 0.0 0.0 0.00 0.00 0.00 66 1018.8
20260502091217 64 213 0.9 1.7 0.00 0.00 0.00 71 1019.0
20260502090740 64 213 0.0 0.0 0.00 0.00 0.00 70 1019.0
20260502090231 64 213 0.0 2.6 0.00 0.00 0.00 70 1019.0